Weather History for KPUB - January, 2006

Change the Weather History Date:

Monday, January 2, 2006

  Actual Average Record
Temperature  
Mean Temperature 42 °F 30 °F  
Max Temperature 67 °F 46 °F 81 °F (1997)
Min Temperature 16 °F 14 °F -20 °F (1979)
Degree Days  
Heating Degree Days 23 35  
Month to date heating degree days 39 70  
Since 1 July heating degree days 2170 2433  
Cooling Degree Days 0 0  
Month to date cooling degree days 0 0  
Year to date cooling degree days 0 0  
Moisture  
Dew Point 14 °F    
Average Humidity 36    
Maximum Humidity 57    
Minimum Humidity 14    
Precipitation  
Precipitation 0.00 in 0.01 in 0.38 in (1971)
Month to date precipitation 0.00 0.02  
Year to date precipitation 0.00 0.02  
Snow  
Snow 0.00 in 0.20 in 6.00 in (1971)
Month to date snowfall 0.0 0.4  
Since 1 July snowfall 5.6 11.9  
Snow Depth 0.00 in    
Sea Level Pressure  
Sea Level Pressure 29.87 in    
Wind  
Wind Speed 7 mph (WSW)    
Max Wind Speed 25 mph    
Max Gust Speed 30 mph    
Visibility 10 miles    
Events      
T = Trace of Precipitation, MM = Missing Value Source: NWS Daily Summary

Daily Weather History Graph

Daily Weather History Graph

Search for Another Location

Airport or City:

Trip Planner

Search our weather history database for the weather conditions in past years. The results will help you decide how hot, cold, wet, or windy it might be!

Date:

Astronomy

Jan. 02, 2006 Rise Set
Actual Time 7:15 AM MST 4:49 PM MST
Civil Twilight 6:45 AM MST 5:18 PM MST
Nautical Twilight 6:12 AM MST 5:51 PM MST
Astronomical Twilight 5:40 AM MST 6:23 PM MST
Moon 9:39 AM MST (1/2) 8:01 PM MST (1/2)
Length of Visible Light 10h 33m
Length of Day
9h 34m
Waxing Crescent, 10% of the Moon is Illuminated
Jan 2
Waxing Crescent
Jan 6
First Quarter
Jan 14
Full
Jan 22
Last Quarter
Jan 29
New

Hourly Weather History & Observations

Time (MST) Temp. Windchill Dew Point Humidity Pressure Visibility Wind Dir Wind Speed Gust Speed Precip Events Conditions
12:53 AM 28.9 °F 25.2 °F 9.0 °F 43% 29.82 in 10.0 mi Variable 3.5 mph - N/A   Clear
1:53 AM 21.9 °F 11.7 °F 8.1 °F 55% 29.86 in 10.0 mi NW 9.2 mph - N/A   Clear
2:53 AM 25.0 °F 19.3 °F 9.0 °F 51% 29.84 in 10.0 mi NE 4.6 mph - N/A   Clear
3:53 AM 21.0 °F - 9.0 °F 60% 29.88 in 10.0 mi Calm Calm - N/A   Clear
4:53 AM 23.0 °F - 8.1 °F 53% 29.91 in 10.0 mi Calm Calm - N/A   Clear
5:53 AM 19.9 °F 14.9 °F 7.0 °F 57% 29.92 in 10.0 mi SSW 3.5 mph - N/A   Clear
6:53 AM 21.0 °F 14.6 °F 8.1 °F 57% 29.92 in 10.0 mi WSW 4.6 mph - N/A   Clear
7:53 AM 25.0 °F - 10.0 °F 53% 29.93 in 10.0 mi Calm Calm - N/A   Clear
8:53 AM 30.9 °F 25.2 °F 12.9 °F 47% 29.94 in 10.0 mi SE 5.8 mph - N/A   Clear
9:53 AM 42.1 °F 39.2 °F 12.0 °F 29% 29.91 in 10.0 mi SW 4.6 mph - N/A   Clear
10:53 AM 48.9 °F - 14.0 °F 25% 29.87 in 10.0 mi Calm Calm - N/A   Clear
11:53 AM 55.9 °F - 15.1 °F 20% 29.84 in 10.0 mi Variable 3.5 mph - N/A   Clear
12:53 PM 61.0 °F - 10.0 °F 13% 29.83 in 10.0 mi SSW 11.5 mph - N/A   Clear
1:53 PM 66.0 °F - 18.0 °F 16% 29.82 in 10.0 mi WSW 19.6 mph 26.5 mph N/A   Clear
2:53 PM 66.9 °F - 17.1 °F 15% 29.79 in 10.0 mi WSW 24.2 mph 29.9 mph N/A   Clear
3:53 PM 64.0 °F - 17.1 °F 16% 29.83 in 10.0 mi WSW 16.1 mph - N/A   Clear
4:53 PM 55.9 °F - 18.0 °F 23% 29.86 in 10.0 mi WSW 9.2 mph - N/A   Clear
5:53 PM 50.0 °F - 18.0 °F 28% 29.91 in 10.0 mi WNW 9.2 mph - N/A   Clear
6:53 PM 48.0 °F - 18.0 °F 30% 29.90 in 10.0 mi WSW 9.2 mph - N/A   Clear
7:53 PM 39.0 °F 35.7 °F 17.1 °F 41% 29.92 in 10.0 mi NNW 4.6 mph - N/A   Clear
8:53 PM 46.0 °F 44.8 °F 19.0 °F 34% 29.89 in 10.0 mi SSW 3.5 mph - N/A   Clear
9:53 PM 37.9 °F 32.7 °F 17.1 °F 43% 29.86 in 10.0 mi NW 6.9 mph - N/A   Clear
10:53 PM 37.0 °F 31.0 °F 17.1 °F 44% 29.84 in 10.0 mi WSW 8.1 mph - N/A   Clear
11:53 PM 44.1 °F 38.6 °F 19.9 °F 38% 29.78 in 10.0 mi WNW 10.4 mph - N/A   Clear